Temp
-5 -5 -5 -5 -5 -4 -4 -3 -4 -3 -4 -4 -4 -5 -5 -5 -5 -4 -5 -5 -5 -5 -5 -5 -5 -5 -5 -6 -6 -6 -6 -6 -6 -6 -6 -6 -6 -6 -6 -6 -6 -6 -6 -6 -6 -6 -6 -6 -6
-4 -5 -5 -5 -5 -4 -3 -4 -4 -4 -5 -4 -4 -5 -5 -5 -5 -5 -6 -5 -5 -5 -6 -5 -5 -6 -6 -6 -6 -6 -6 -6 -6 -6 -6 -6 -6 -6 -6 -6 -6 -6 -6 -6 -6 -6 -6 -7 -7
-5 -5 -4 -5 -5 -6 -4 -3 -4 -5 -5 -5 -5 -5 -5 -5 -4 -5 -5 -5 -5 -5 -6 -5 -5 -6 -6 -6 -6 -6 -6 -6 -6 -6 -6 -6 -6 -6 -6 -6 -6 -6 -6 -6 -6 -6 -7 -7 -7
-5 -4 -4 -4 -5 -5 -4 -4 -5 -5 -5 -4 -4 -5 -5 -4 -5 -5 -5 -5 -5 -6 -6 -5 -6 -6 -6 -6 -6 -6 -6 -6 -6 -6 -6 -6 -6 -6 -6 -6 -6 -6 -6 -6 -6 -7 -7 -7 -8
-5 -4 -4 -6 -6 -5 -4 -4 -4 -5 -5 -5 -5 -5 -5 -5 -5 -5 -5 -5 -5 -5 -5 -6 -6 -6 -6 -7 -6 -6 -6 -6 -6 -6 -6 -6 -7 -6 -6 -6 -6 -6 -6 -6 -7 -7 -7 -8 -8
-4 -4 -5 -6 -5 -6 -3 -4 -5 -5 -5 -5 -5 -6 -5 -5 -5 -5 -5 -5 -5 -5 -6 -6 -6 -6 -6 -6 -6 -6 -7 -7 -7 -6 -6 -6 -7 -7 -7 -6 -6 -6 -6 -7 -7 -7 -7 -7 -8
-5 -4 -5 -5 -5 -3 -4 -4 -5 -6 -6 -5 -5 -6 -6 -5 -5 -5 -5 -5 -5 -6 -6 -6 -7 -7 -7 -6 -6 -7 -7 -7 -7 -6 -6 -6 -7 -7 -7 -6 -6 -6 -6 -7 -7 -7 -7 -7 -7
-5 -6 -4 -4 -5 -4 -3 -4 -5 -5 -5 -5 -4 -5 -6 -5 -5 -5 -6 -5 -6 -6 -6 -6 -7 -7 -7 -6 -6 -7 -7 -7 -7 -7 -7 -7 -7 -6 -6 -6 -6 -6 -7 -7 -7 -7 -7 -7 -7
-6 -5 -4 -4 -4 -5 -4 -4 -4 -4 -5 -5 -5 -5 -5 -5 -5 -5 -5 -6 -6 -6 -6 -6 -6 -6 -6 -6 -6 -7 -7 -7 -7 -7 -7 -7 -6 -6 -6 -6 -6 -7 -7 -7 -7 -7 -7 -7 -7
-5 -5 -4 -4 -4 -4 -4 -4 -5 -6 -5 -6 -5 -6 -6 -6 -6 -6 -6 -6 -6 -6 -6 -5 -6 -6 -6 -6 -6 -7 -7 -7 -7 -7 -7 -7 -6 -6 -5 -6 -6 -7 -8 -7 -7 -8 -8 -8 -8
-6 -4 -4 -4 -5 -4 -4 -5 -5 -6 -5 -5 -5 -5 -5 -6 -6 -6 -6 -5 -6 -6 -6 -6 -6 -6 -6 -6 -6 -7 -7 -7 -7 -7 -7 -7 -7 -6 -6 -6 -6 -6 -7 -7 -8 -9 -9 -9 -8
-6 -5 -5 -5 -5 -4 -4 -5 -4 -4 -5 -4 -5 -5 -6 -5 -5 -6 -6 -6 -6 -6 -6 -6 -6 -5 -6 -6 -6 -7 -7 -7 -7 -7 -7 -7 -7 -7 -7 -6 -6 -7 -6 -7 -7 -8 -8 -8 -8
-5 -7 -6 -5 -5 -4 -4 -5 -5 -4 -4 -4 -4 -5 -5 -5 -5 -5 -6 -6 -6 -6 -6 -5 -5 -6 -6 -6 -6 -6 -7 -7 -7 -7 -7 -7 -7 -7 -7 -7 -7 -6 -6 -6 -7 -8 -8 -8 -7
-4 -5 -5 -5 -5 -4 -5 -5 -6 -5 -5 -5 -5 -5 -5 -5 -5 -5 -5 -6 -6 -6 -5 -5 -5 -6 -6 -5 -6 -6 -6 -7 -7 -7 -7 -8 -7 -7 -7 -7 -8 -7 -7 -7 -7 -7 -8 -8 -8
-5 -6 -5 -5 -5 -5 -5 -5 -5 -5 -5 -5 -5 -5 -4 -4 -5 -5 -5 -5 -5 -5 -5 -5 -5 -6 -6 -6 -6 -6 -7 -6 -6 -7 -7 -8 -7 -7 -7 -7 -7 -8 -7 -8 -8 -7 -8 -8 -8
-5 -5 -5 -5 -6 -5 -7 -6 -5 -6 -5 -5 -5 -5 -5 -5 -4 -5 -5 -5 -5 -5 -5 -5 -5 -5 -5 -5 -6 -6 -6 -7 -6 -6 -6 -6 -7 -7 -6 -6 -6 -7 -7 -7 -7 -7 -7 -7 -8
-5 -5 -5 -5 -6 -6 -5 -5 -5 -5 -5 -5 -5 -5 -5 -5 -5 -5 -5 -5 -5 -5 -5 -4 -5 -5 -5 -5 -5 -5 -6 -6 -7 -7 -7 -7 -6 -6 -7 -7 -7 -7 -7 -6 -6 -6 -7 -6 -7
-5 -5 -5 -6 -5 -5 -5 -5 -5 -5 -4 -4 -4 -5 -5 -5 -5 -5 -4 -5 -5 -5 -4 -4 -5 -4 -5 -5 -5 -6 -6 -6 -6 -7 -6 -6 -6 -6 -6 -6 -6 -7 -7 -7 -6 -6 -7 -6 -7
-6 -5 -5 -5 -5 -5 -5 -6 -6 -6 -5 -4 -4 -3 -4 -5 -5 -4 -5 -5 -5 -5 -4 -5 -5 -5 -5 -5 -5 -5 -6 -6 -6 -6 -6 -6 -6 -6 -6 -6 -6 -7 -7 -6 -6 -7 -7 -6 -7
-7 -6 -7 -6 -6 -5 -5 -5 -5 -4 -5 -4 -4 -4 -4 -4 -4 -4 -4 -5 -5 -5 -5 -5 -5 -5 -5 -5 -6 -6 -6 -6 -6 -6 -6 -7 -6 -6 -6 -7 -6 -7 -7 -7 -7 -7 -7 -7 -7
-7 -6 -5 -6 -5 -5 -5 -4 -5 -5 -4 -3 -4 -4 -4 -4 -5 -5 -5 -4 -5 -4 -5 -5 -5 -5 -5 -5 -5 -6 -5 -6 -6 -6 -6 -7 -6 -6 -6 -7 -7 -7 -7 -7 -7 -7 -7 -7 -6
-6 -7 -6 -6 -6 -6 -5 -4 -5 -5 -4 -4 -4 -5 -4 -5 -5 -5 -5 -5 -5 -5 -5 -5 -5 -5 -5 -6 -6 -6 -6 -6 -6 -6 -6 -5 -6 -6 -6 -7 -7 -7 -7 -6 -7 -6 -6 -6 -6
-6 -6 -6 -7 -6 -5 -6 -5 -6 -5 -4 -4 -5 -5 -4 -4 -5 -5 -5 -5 -5 -5 -5 -5 -5 -6 -5 -5 -5 -6 -6 -7 -7 -6 -6 -6 -6 -6 -6 -6 -7 -7 -7 -8 -7 -7 -6 -6 -7
-7 -7 -6 -6 -6 -5 -6 -7 -5 -5 -5 -4 -5 -5 -4 -4 -5 -5 -5 -6 -6 -5 -6 -6 -6 -6 -6 -6 -5 -6 -6 -6 -6 -6 -7 -7 -7 -7 -7 -7 -7 -7 -7 -7 -7 -7 -7 -7 -6
-7 -7 -7 -7 -7 -6 -8 -7 -5 -5 -6 -5 -5 -4 -4 -3 -5 -5 -5 -6 -6 -6 -6 -6 -6 -6 -6 -5 -6 -5 -6 -6 -6 -7 -7 -7 -7 -7 -7 -7 -7 -7 -7 -7 -7 -7 -7 -7 -7
-8 -8 -8 -8 -7 -8 -8 -7 -6 -6 -6 -7 -6 -4 -4 -4 -4 -4 -4 -5 -5 -6 -6 -6 -6 -6 -6 -7 -7 -6 -6 -6 -7 -7 -7 -7 -7 -7 -7 -8 -7 -8 -8 -7 -7 -7 -7 -7 -7
-7 -8 -8 -8 -8 -7 -8 -7 -7 -6 -6 -7 -6 -5 -5 -5 -4 -4 -5 -5 -5 -5 -6 -6 -7 -7 -7 -7 -7 -7 -7 -7 -7 -7 -7 -7 -7 -6 -7 -7 -8 -8 -7 -7 -7 -7 -7 -7 -7
-8 -8 -9 -9 -8 -7 -8 -8 -8 -7 -7 -7 -7 -6 -6 -6 -5 -5 -5 -5 -5 -6 -6 -6 -8 -8 -8 -8 -8 -8 -8 -8 -8 -8 -8 -7 -7 -7 -7 -7 -7 -7 -6 -6 -6 -8 -7 -7 -8
-9 -9 -9 -9 -9 -8 -8 -9 -7 -7 -7 -7 -7 -7 -8 -7 -7 -7 -6 -6 -7 -7 -7 -7 -8 -8 -8 -8 -8 -8 -8 -9 -9 -8 -8 -8 -7 -7 -7 -7 -7 -6 -7 -7 -7 -7 -7 -7 -8
-9 -9 -9 -9 -8 -8 -9 -9 -7 -7 -7 -7 -7 -7 -8 -8 -8 -8 -8 -7 -7 -8 -8 -8 -8 -8 -8 -8 -9 -8 -8 -8 -9 -9 -9 -8 -8 -7 -8 -8 -7 -8 -7 -8 -7 -7 -8 -8 -8
Height
5896 5896 5898 5902 5908 5907 5905 5907 5911 5913 5916 5917 5918 5919 5920 5921 5923 5923 5922 5921 5921 5921 5922 5922 5921 5921 5920 5920 5921 5922 5921 5921 5920 5919 5920 5919 5919 5919 5918 5917 5917 5916 5916 5916 5915 5915 5913 5911 5912
5901 5898 5901 5904 5907 5908 5908 5910 5913 5916 5917 5920 5921 5920 5922 5923 5924 5923 5924 5924 5923 5923 5924 5923 5923 5923 5923 5923 5924 5924 5924 5923 5922 5921 5922 5922 5921 5921 5920 5919 5919 5919 5919 5918 5917 5917 5915 5915 5914
5900 5903 5905 5907 5908 5909 5914 5913 5916 5917 5918 5920 5921 5924 5923 5925 5926 5925 5926 5926 5925 5925 5926 5926 5926 5926 5926 5926 5926 5926 5925 5925 5924 5923 5922 5923 5923 5922 5923 5922 5921 5921 5921 5920 5920 5919 5917 5917 5916
5899 5906 5909 5910 5910 5911 5916 5918 5918 5921 5921 5921 5922 5925 5926 5926 5926 5927 5927 5928 5928 5928 5928 5928 5928 5928 5927 5927 5928 5929 5928 5927 5927 5925 5924 5924 5924 5924 5925 5924 5924 5923 5923 5923 5922 5921 5920 5919 5918
5907 5910 5911 5912 5912 5916 5916 5920 5921 5924 5924 5924 5925 5927 5928 5928 5926 5928 5930 5930 5930 5930 5930 5930 5930 5930 5930 5931 5931 5931 5930 5929 5929 5928 5927 5926 5926 5926 5926 5926 5926 5925 5925 5924 5923 5922 5922 5922 5922
5911 5914 5914 5916 5917 5919 5919 5921 5923 5926 5927 5926 5927 5928 5930 5929 5929 5930 5931 5931 5930 5931 5931 5931 5931 5931 5932 5934 5933 5932 5931 5931 5931 5930 5929 5929 5929 5928 5929 5928 5928 5928 5927 5927 5927 5925 5926 5926 5925
5917 5918 5916 5919 5921 5919 5922 5923 5924 5927 5929 5929 5930 5930 5934 5933 5932 5932 5932 5932 5932 5932 5932 5932 5932 5933 5935 5935 5934 5932 5933 5934 5934 5934 5933 5933 5931 5930 5930 5931 5931 5932 5932 5931 5931 5931 5931 5930 5929
5920 5922 5919 5920 5922 5921 5922 5923 5927 5928 5930 5932 5932 5933 5935 5935 5934 5934 5934 5934 5934 5933 5933 5933 5934 5934 5936 5936 5935 5935 5935 5935 5936 5937 5937 5936 5935 5934 5932 5934 5935 5936 5937 5936 5935 5936 5937 5936 5934
5919 5923 5921 5921 5923 5924 5924 5927 5928 5931 5932 5934 5935 5936 5937 5937 5935 5936 5936 5935 5935 5934 5935 5933 5934 5934 5935 5936 5937 5937 5937 5938 5938 5939 5939 5939 5939 5939 5937 5937 5938 5940 5939 5939 5938 5939 5940 5940 5940
5923 5926 5922 5923 5924 5925 5927 5929 5930 5933 5934 5936 5936 5937 5938 5938 5937 5937 5937 5936 5935 5936 5936 5936 5934 5936 5937 5938 5940 5939 5940 5941 5942 5941 5942 5943 5942 5942 5942 5941 5941 5940 5937 5938 5942 5943 5941 5941 5943
5925 5926 5923 5925 5924 5927 5928 5931 5931 5932 5934 5936 5936 5937 5938 5939 5939 5939 5938 5937 5937 5938 5938 5938 5937 5938 5940 5940 5941 5941 5942 5943 5945 5944 5944 5944 5944 5946 5946 5945 5943 5939 5938 5943 5946 5946 5944 5943 5943
5924 5925 5925 5926 5928 5929 5930 5931 5933 5935 5936 5938 5937 5937 5938 5937 5938 5939 5939 5938 5938 5940 5941 5941 5940 5942 5942 5940 5943 5944 5943 5945 5945 5945 5945 5945 5946 5948 5948 5946 5945 5943 5944 5946 5948 5949 5947 5946 5945
5923 5925 5927 5927 5927 5930 5931 5935 5934 5934 5936 5937 5939 5938 5939 5938 5938 5939 5940 5939 5939 5940 5941 5942 5943 5943 5943 5943 5944 5946 5945 5948 5946 5946 5946 5949 5949 5948 5949 5949 5946 5944 5949 5950 5950 5950 5949 5948 5949
5926 5924 5929 5928 5929 5932 5934 5936 5936 5936 5938 5938 5938 5940 5940 5940 5941 5940 5939 5940 5940 5939 5942 5943 5946 5946 5945 5946 5947 5948 5947 5949 5950 5947 5946 5949 5951 5949 5950 5949 5948 5944 5950 5952 5950 5949 5949 5950 5948
5926 5928 5929 5931 5931 5933 5935 5937 5937 5938 5939 5939 5938 5939 5940 5942 5942 5943 5942 5941 5940 5940 5942 5945 5947 5950 5947 5948 5949 5950 5949 5948 5951 5952 5951 5949 5950 5950 5949 5949 5948 5945 5947 5952 5951 5949 5947 5948 5947
5930 5931 5930 5932 5933 5934 5936 5936 5937 5938 5938 5939 5938 5939 5939 5940 5941 5942 5942 5941 5942 5943 5944 5945 5948 5950 5949 5948 5949 5949 5952 5950 5950 5950 5951 5953 5952 5951 5949 5948 5948 5947 5947 5947 5947 5947 5947 5945 5947
5930 5932 5932 5934 5934 5935 5936 5935 5936 5937 5935 5937 5939 5940 5939 5939 5939 5941 5942 5941 5944 5945 5945 5945 5947 5948 5950 5950 5949 5949 5950 5953 5952 5951 5952 5953 5954 5953 5949 5948 5949 5947 5946 5946 5943 5943 5943 5945 5946
5930 5931 5932 5932 5934 5933 5935 5937 5938 5938 5936 5934 5937 5939 5938 5937 5938 5940 5942 5943 5944 5945 5947 5946 5946 5947 5949 5950 5951 5950 5950 5950 5951 5951 5951 5950 5949 5949 5949 5949 5950 5949 5947 5944 5944 5942 5943 5944 5946
5933 5931 5935 5932 5934 5933 5931 5938 5939 5939 5939 5937 5936 5936 5937 5938 5940 5940 5940 5942 5943 5945 5945 5945 5946 5946 5947 5948 5949 5950 5950 5951 5952 5951 5951 5950 5949 5947 5948 5948 5948 5948 5949 5948 5946 5941 5940 5940 5939
5934 5934 5933 5930 5934 5934 5937 5936 5935 5938 5942 5941 5937 5935 5936 5936 5936 5940 5941 5941 5943 5943 5944 5944 5945 5945 5946 5947 5947 5946 5947 5948 5949 5948 5949 5948 5947 5945 5945 5946 5946 5945 5946 5946 5946 5944 5942 5940 5939
5932 5930 5928 5929 5930 5934 5934 5934 5931 5933 5936 5941 5941 5939 5939 5939 5938 5939 5941 5942 5943 5943 5943 5943 5943 5944 5944 5944 5944 5944 5944 5944 5944 5945 5945 5945 5946 5946 5945 5944 5944 5943 5942 5942 5943 5941 5940 5939 5938
5930 5926 5927 5927 5930 5932 5934 5935 5931 5932 5932 5936 5941 5940 5937 5939 5940 5940 5940 5941 5942 5943 5944 5943 5944 5943 5943 5943 5942 5941 5943 5943 5941 5941 5943 5942 5943 5941 5941 5940 5939 5938 5938 5938 5939 5939 5936 5935 5935
5929 5924 5927 5926 5929 5932 5933 5934 5935 5932 5932 5932 5935 5939 5937 5936 5937 5938 5938 5938 5940 5941 5944 5942 5941 5942 5940 5941 5940 5938 5939 5939 5935 5937 5939 5941 5941 5940 5938 5935 5935 5935 5933 5934 5933 5934 5933 5931 5930
5928 5923 5924 5924 5925 5929 5927 5927 5932 5931 5929 5929 5930 5934 5934 5933 5934 5938 5936 5935 5936 5938 5937 5937 5938 5939 5937 5938 5937 5935 5935 5935 5935 5935 5935 5935 5938 5935 5933 5932 5931 5929 5928 5927 5928 5927 5927 5926 5926
5925 5926 5922 5921 5920 5926 5921 5923 5926 5927 5927 5926 5927 5929 5929 5929 5929 5931 5935 5936 5934 5933 5932 5933 5933 5934 5934 5934 5935 5931 5932 5931 5930 5929 5930 5928 5930 5931 5929 5927 5927 5925 5923 5921 5922 5922 5921 5919 5921
5917 5919 5919 5919 5923 5922 5919 5918 5922 5922 5924 5923 5922 5923 5924 5925 5925 5925 5925 5931 5930 5930 5927 5926 5928 5927 5926 5925 5929 5927 5927 5927 5926 5924 5924 5923 5922 5923 5923 5921 5919 5918 5918 5918 5918 5916 5914 5913 5913
5911 5911 5913 5913 5915 5915 5913 5913 5915 5919 5919 5916 5913 5917 5919 5919 5919 5919 5921 5920 5921 5923 5922 5921 5921 5921 5920 5919 5920 5920 5920 5920 5919 5917 5916 5917 5916 5915 5915 5915 5915 5914 5913 5911 5910 5910 5909 5908 5907
5903 5906 5907 5907 5908 5909 5908 5907 5909 5911 5912 5912 5912 5911 5911 5911 5911 5912 5913 5912 5912 5913 5914 5914 5914 5915 5915 5915 5914 5912 5913 5912 5911 5910 5909 5907 5905 5906 5907 5907 5905 5904 5905 5903 5901 5900 5900 5901 5900
5897 5898 5901 5903 5903 5903 5904 5903 5904 5905 5904 5902 5902 5903 5904 5906 5907 5906 5906 5906 5906 5906 5907 5908 5908 5907 5908 5906 5904 5903 5902 5903 5902 5900 5899 5899 5897 5896 5894 5893 5893 5893 5893 5892 5891 5891 5890 5890 5891
5891 5890 5893 5892 5895 5895 5896 5897 5899 5900 5897 5896 5896 5896 5894 5894 5899 5899 5900 5899 5899 5900 5899 5899 5898 5898 5897 5896 5896 5895 5891 5889 5890 5889 5888 5887 5887 5882 5884 5882 5881 5880 5881 5881 5881 5881 5880 5880 5880
Wind_Speed
20 18 19 20 13 17 16 18 16 14 14 18 15 15 13 12 11 14 12 12 12 15 12 12 11 10 11 13 11 9 7 6 6 7 8 10 11 13 14 15 15 16 17 16 16 17 19 19 22
20 23 21 18 14 12 18 18 20 19 19 17 15 17 13 13 11 13 13 12 11 12 12 13 13 12 13 12 9 7 6 5 6 9 9 10 12 14 15 16 16 17 17 16 18 18 20 22 25
24 22 16 17 19 12 9 21 22 16 18 17 17 12 16 13 8 14 11 10 9 11 11 12 11 12 11 9 6 5 6 7 7 9 10 12 14 16 16 17 17 17 16 17 18 20 22 23 25
27 20 19 20 24 16 15 21 21 15 14 15 16 14 12 11 11 13 10 8 9 11 11 11 9 9 9 6 5 7 5 6 7 8 11 14 16 17 17 17 17 16 16 17 19 21 23 24 27
27 19 19 23 20 19 17 18 20 14 13 13 14 14 12 7 12 11 10 9 10 11 10 10 9 5 6 6 8 7 7 7 7 10 13 15 17 18 17 16 16 15 16 17 19 21 23 25 26
23 17 21 17 18 15 13 15 13 12 13 12 10 12 9 8 11 9 7 7 8 8 7 7 6 6 5 5 7 7 7 7 9 10 13 17 17 17 16 16 15 14 15 16 18 19 20 22 24
18 22 19 18 12 14 14 12 13 10 11 10 9 14 8 7 8 6 4 5 6 5 4 4 4 7 4 4 4 8 10 9 10 10 12 16 17 16 15 14 13 13 14 16 17 17 18 18 22
13 13 17 19 16 7 16 21 13 12 10 8 7 12 10 6 4 4 3 4 4 4 4 3 3 13 7 3 4 9 10 11 10 9 10 12 13 14 14 12 12 13 15 15 14 13 14 12 16
14 12 13 12 12 10 13 16 12 10 11 9 8 7 7 5 3 4 5 5 5 5 5 5 12 13 9 5 8 10 10 11 11 10 9 10 11 11 13 14 14 16 16 14 13 14 12 11 13
11 10 11 11 13 11 12 17 16 14 11 9 7 8 5 5 4 5 5 5 5 6 4 12 16 13 9 9 9 11 10 11 11 11 10 8 9 9 10 14 15 17 15 11 13 12 11 10 11
15 9 9 14 12 9 14 15 15 14 9 9 7 8 5 5 5 4 5 7 5 9 13 12 12 12 11 10 8 12 14 13 13 10 11 9 7 8 12 12 14 12 11 14 13 10 10 7 9
18 10 10 9 10 9 12 13 12 12 10 10 9 10 8 6 6 5 4 6 4 9 8 11 8 11 9 10 11 13 14 14 14 10 12 10 8 8 12 9 9 8 12 12 9 9 8 5 3
18 12 6 7 7 9 10 12 9 10 8 7 9 9 9 7 5 5 3 5 6 8 8 9 9 9 9 11 14 14 10 13 13 13 11 8 6 11 8 6 4 3 11 7 9 9 8 5 5
16 18 8 10 6 8 8 10 9 6 5 4 7 10 10 9 8 6 6 4 8 9 11 8 9 10 9 11 11 12 9 8 9 13 10 7 8 8 7 7 2 6 11 6 5 4 3 7 3
11 10 8 5 2 4 5 6 7 6 6 6 7 9 9 11 8 8 4 7 8 10 12 9 8 11 9 9 8 9 10 8 10 9 6 6 5 6 7 4 6 2 6 5 1 3 1 3 4
12 7 7 7 3 5 8 5 5 4 4 5 5 7 5 6 7 8 5 6 7 11 9 9 8 11 8 9 8 9 10 4 2 5 2 2 4 5 3 2 2 1 0 3 4 2 1 2 2
11 8 7 7 7 5 1 7 7 8 6 7 7 7 6 4 4 5 5 7 5 9 9 10 11 11 10 9 7 7 6 5 3 4 4 6 4 3 6 5 4 2 3 5 6 5 3 3 3
19 8 12 4 3 4 11 14 11 7 6 7 8 7 7 6 3 2 4 4 3 2 5 6 6 6 5 4 4 4 3 1 1 2 5 6 5 5 5 8 8 8 9 10 7 6 5 3 5
12 8 4 8 7 7 8 6 3 11 8 4 7 6 5 7 6 4 2 2 3 2 4 5 6 5 4 3 3 4 6 4 4 7 5 5 6 7 8 9 8 9 12 13 11 12 11 7 7
7 3 10 13 4 3 8 12 3 3 9 8 5 5 6 3 1 2 3 1 3 4 5 7 8 8 8 6 6 5 5 5 7 11 10 9 10 13 13 12 13 12 12 13 13 12 13 14 11
1 6 10 13 6 9 6 11 16 17 15 4 7 4 4 5 3 3 4 5 7 6 6 8 8 9 9 9 9 8 7 6 10 10 14 14 14 17 16 17 18 19 18 17 15 13 13 16 15
7 12 11 15 3 1 4 8 12 14 12 12 9 3 2 1 3 3 3 2 4 6 6 9 8 8 10 11 11 10 11 10 14 15 16 18 16 17 16 18 21 21 23 23 21 21 17 16 18
12 16 15 19 11 7 8 13 9 8 4 12 12 10 14 9 7 6 7 4 5 6 7 7 9 10 14 10 16 12 11 11 19 18 18 21 21 19 20 24 24 27 23 28 25 25 22 21 21
15 20 23 22 22 14 20 20 8 11 14 11 14 15 7 11 13 13 11 5 11 12 13 14 14 14 15 16 17 13 10 12 7 11 18 22 22 19 23 24 27 32 33 34 27 26 24 25 21
20 25 25 23 28 10 18 18 13 12 15 22 17 15 13 18 17 16 19 8 12 13 20 25 19 15 15 15 18 15 15 12 16 18 21 19 18 21 23 26 28 30 28 22 29 27 25 24 25
9 16 28 27 22 23 26 27 20 19 17 18 24 25 22 17 16 15 17 12 10 13 20 22 21 14 20 13 14 17 20 22 20 21 22 25 26 22 24 24 27 24 29 29 29 28 27 28 30
18 19 17 22 27 31 29 30 23 16 13 20 28 26 23 21 24 25 26 24 10 15 16 19 22 23 24 24 26 23 23 25 25 27 27 30 29 31 27 25 30 31 33 33 34 35 31 31 36
20 21 19 23 27 31 27 27 27 25 21 19 25 25 28 28 28 27 25 17 16 17 20 22 25 25 24 26 26 27 28 28 28 30 34 37 37 36 37 37 34 35 37 37 34 36 37 27 36
19 23 18 20 29 29 28 24 30 26 23 20 29 29 23 26 26 27 24 26 24 26 26 26 28 31 29 32 33 34 34 34 37 38 40 41 42 41 44 43 40 41 41 37 36 34 35 31 27
24 19 20 26 24 31 32 30 35 35 33 29 34 32 32 30 27 27 23 23 26 29 31 32 34 37 38 38 36 39 38 37 41 44 44 42 42 46 46 42 47 42 44 35 33 37 35 31 34
Wind_Direction
116 133 123 124 122 128 129 126 130 101 120 120 121 119 112 106 112 98 91 91 91 92 86 82 79 84 96 101 103 95 85 77 78 83 83 84 87 90 93 94 94 97 94 87 78 70 68 72 74
127 107 119 124 124 120 114 115 106 110 107 122 112 133 115 117 113 98 91 83 87 80 76 74 80 96 109 109 107 100 86 80 82 90 91 95 99 100 101 102 98 96 93 84 77 72 78 78 77
135 131 121 127 136 121 119 113 114 118 111 121 107 119 116 108 108 97 97 96 84 77 71 67 79 110 118 114 111 90 78 81 90 99 103 105 110 111 111 106 102 97 92 84 82 83 85 83 80
122 116 122 123 113 104 121 104 112 109 103 108 105 116 109 110 116 110 98 96 82 73 67 71 87 115 124 122 86 52 52 73 75 98 105 113 118 118 114 110 106 103 96 90 91 95 92 89 84
107 102 114 125 128 134 110 115 115 116 120 115 115 109 119 132 122 115 98 81 66 72 68 77 81 121 144 98 57 42 57 62 87 100 107 117 121 121 120 115 111 107 100 98 100 101 101 99 92
123 127 123 115 107 120 122 114 111 116 118 121 104 114 139 142 120 105 93 70 61 78 92 98 88 147 134 76 43 47 57 78 91 99 114 121 121 121 120 118 118 110 102 101 102 106 107 103 98
125 143 117 107 87 103 102 126 126 125 131 128 109 130 129 122 103 99 81 66 58 69 74 93 134 148 138 93 50 72 80 82 92 108 124 127 125 120 120 124 121 107 100 99 104 105 108 105 101
133 136 119 111 107 40 77 89 112 133 125 132 115 135 129 112 90 72 46 24 42 59 54 21 106 153 147 122 87 95 102 102 106 109 116 125 120 114 119 115 103 95 87 89 90 97 99 99 96
120 118 103 99 99 85 78 82 111 101 110 97 79 81 92 95 34 24 4 8 11 13 26 33 137 146 144 122 91 98 105 111 112 111 118 122 113 106 102 101 96 86 80 80 87 84 79 75 72
124 145 110 104 84 77 89 97 108 105 113 112 111 90 62 56 39 19 13 3 13 31 52 112 135 136 120 90 85 107 107 101 96 93 82 93 112 106 95 94 98 98 100 102 85 80 84 78 72
117 122 109 98 98 101 95 107 117 118 118 107 107 97 96 86 72 50 21 43 59 81 114 120 125 115 96 90 93 115 110 101 91 89 96 104 100 80 65 78 91 109 107 77 69 84 81 87 81
137 113 100 102 112 109 101 103 106 113 120 114 104 87 87 86 102 87 61 34 93 121 127 116 125 105 105 102 105 107 119 111 106 97 105 110 106 84 75 80 108 109 85 73 70 69 49 60 82
124 119 97 124 115 82 89 113 116 109 109 103 101 90 81 91 83 58 63 14 136 151 151 141 113 108 122 114 110 100 115 118 114 114 124 102 113 94 87 86 63 83 81 82 91 20 66 357 67
137 117 137 122 112 88 87 105 112 102 97 95 85 101 99 101 83 49 13 339 151 162 152 159 127 130 133 113 122 121 109 117 129 133 128 131 138 99 120 108 109 3 59 72 100 120 213 17 86
114 121 119 81 67 93 80 84 106 119 113 102 92 86 107 115 94 80 7 1 157 165 144 136 129 127 135 118 121 115 162 139 134 158 185 155 143 127 133 104 113 58 76 85 196 153 319 359 44
161 93 113 112 136 70 51 43 87 90 90 85 76 88 82 114 111 98 73 46 124 163 172 160 134 125 134 121 127 114 134 160 160 136 137 201 215 204 178 160 100 89 271 161 206 206 137 37 328
173 120 102 134 121 116 210 66 75 79 83 91 110 138 136 102 93 101 101 81 127 160 168 149 143 131 121 115 92 79 71 109 162 256 237 237 245 278 302 305 307 247 241 229 259 278 304 136 204
193 100 73 154 174 76 62 60 35 35 73 83 82 128 147 135 115 95 99 103 114 163 174 159 164 147 134 134 126 118 149 149 258 216 253 278 283 277 268 292 300 297 276 265 249 262 263 267 166
79 80 209 270 193 243 297 27 33 45 10 39 78 74 113 146 144 149 115 148 131 209 241 246 253 258 265 270 235 241 260 261 235 270 265 279 309 316 301 294 291 289 284 291 294 293 291 296 305
74 294 348 303 53 221 25 13 203 17 10 330 41 59 55 94 147 169 224 175 223 209 258 268 273 276 279 284 276 277 283 297 282 278 282 278 293 292 296 308 305 301 299 297 294 292 296 293 279
15 295 297 316 359 40 357 340 11 4 337 356 350 351 79 80 67 336 275 249 246 231 234 254 260 272 281 280 280 276 270 270 263 261 268 266 277 282 291 293 299 295 292 292 287 278 285 289 295
245 278 296 307 314 338 63 354 347 342 325 330 339 298 301 89 141 182 221 240 270 280 263 273 285 287 288 286 278 275 278 276 277 270 269 269 269 271 277 281 288 288 280 284 285 284 280 284 291
235 272 283 285 292 278 348 317 312 309 329 300 306 266 264 277 275 258 262 261 246 237 265 275 274 277 276 295 269 248 256 284 256 266 272 278 276 278 283 281 286 288 284 281 277 277 274 278 280
238 255 262 272 275 282 305 294 262 281 283 286 290 272 232 247 262 253 253 266 290 291 279 267 273 293 272 262 293 236 256 286 306 273 275 277 277 275 275 270 272 278 277 272 263 280 272 275 272
250 236 250 269 268 269 260 257 242 262 281 273 265 275 254 298 238 244 248 222 245 268 269 277 279 290 257 269 275 266 277 276 277 282 286 284 278 278 284 280 283 282 288 288 259 277 282 281 279
243 246 243 244 232 243 256 260 255 261 264 267 264 259 272 282 251 263 294 272 237 241 257 271 280 255 265 241 263 247 264 277 279 280 285 280 285 291 285 285 289 291 283 280 278 277 283 279 281
239 236 260 249 246 236 249 260 270 250 285 282 276 263 263 263 252 250 264 277 252 246 249 259 259 262 256 271 274 277 276 278 280 283 282 282 281 280 285 269 282 284 284 291 283 279 278 274 272
253 243 241 247 246 235 249 259 265 274 274 277 263 254 272 257 254 261 265 263 282 276 260 272 270 268 267 266 269 273 275 276 279 277 278 282 283 282 281 282 283 282 283 281 278 277 272 276 273
227 246 262 251 253 257 248 254 252 262 262 263 249 262 240 243 248 254 260 263 275 278 276 274 276 279 279 281 276 272 273 275 274 273 275 279 279 282 285 286 282 286 282 276 270 271 275 273 276
235 222 247 261 262 252 246 250 249 250 266 269 271 247 227 221 235 251 262 272 276 276 276 277 280 282 281 278 280 278 272 268 269 273 279 276 288 268 287 282 281 276 280 270 273 279 275 261 271